#timestamp,LO_Frequency,Hit,StdDev 
1503255615.4,286047002.6,N,1.0
1503255635.3,286046999.8,N,1.2
1503255655.1,286047002.3,N,1.1
1503255656.0,286047002.3,N,1.1
1503255675.8,286046999.7,N,1.2
1503255695.7,286046999.7,N,1.3
1503255715.5,286047002.4,N,1.2
1503255735.3,286047002.4,N,1.2
1503255755.2,286047002.5,N,1.2
1503255775.0,286047001.4,N,1.2
1503255775.9,286047001.4,N,1.1
1503255795.8,286047001.5,N,1.1
1503255815.6,286047004.0,Y,0.0
1503255835.4,286047001.6,P,0.0
1503255855.3,286047002.6,P,0.5
1503255875.1,286047002.8,P,0.6
1503255895.9,286047002.6,Y,0.0
1503255915.7,286047001.1,P,0.5
1503255935.5,286047000.7,N,0.6
1503255955.4,286047000.8,N,0.6
1503255975.2,286046998.6,N,1.2
1503255995.0,286047000.7,N,1.1
1503255996.0,286047000.7,N,1.0
1503256015.8,286047000.0,N,0.9
1503256035.6,286047000.6,N,0.9
1503256055.5,286046999.8,N,0.9
1503256075.3,286047002.3,N,1.0
1503256095.1,286047000.3,N,0.9
1503256115.9,286047002.3,N,1.0
1503256135.7,286047000.5,N,1.0
1503256155.6,286047000.8,N,0.9
1503256175.4,286047001.0,N,0.9
1503256195.2,286046999.9,N,0.9
1503256215.1,286047002.2,N,0.9
1503256216.0,286047002.2,N,1.0
1503256235.8,286047002.6,N,1.0
1503256255.6,286046999.7,N,1.0
1503256275.5,286047001.9,N,1.0
1503256295.3,286047002.2,N,1.0
1503256315.2,286047000.1,N,1.0
1503256335.0,286047000.2,N,1.0
1503256335.9,286047000.2,N,1.0
1503256355.7,286047002.0,N,1.0
1503256375.6,286047002.3,N,1.0
1503256395.4,286047002.3,N,1.0
1503256415.3,286047001.9,N,1.0
1503256435.1,286047001.9,N,1.0
1503256436.0,286047001.9,N,1.0
1503256455.8,286047002.4,N,1.1
1503256475.7,286047001.8,N,1.1
1503256495.5,286047002.5,N,1.0
1503256515.4,286047000.2,N,1.0
1503256535.2,286046999.8,N,1.0
1503256555.0,286046999.9,N,1.0
1503256555.9,286046999.9,N,1.0
1503256575.8,286047002.7,N,1.0
1503256595.6,286047002.6,N,1.1
1503256615.4,286047002.3,N,1.0
1503256635.3,286047002.2,N,1.0
1503256655.1,286047000.1,N,1.1
1503256675.9,286047002.7,N,1.1
1503256695.7,286047002.6,N,1.1
1503256715.6,286047001.9,N,1.1
1503256735.4,286047001.9,N,1.1
1503256755.2,286047003.9,Y,0.0
1503256775.1,286047001.0,P,0.3
1503256776.0,286047001.0,P,0.3
1503256795.8,286046999.8,N,0.6
1503256815.7,286047002.8,Y,0.0
1503256835.5,286047000.3,P,0.3
1503256855.3,286047001.1,P,0.3
1503256875.2,286046998.1,P,1.2
1503256895.0,286047000.6,N,1.1
1503256895.9,286047000.6,N,1.0
1503256915.7,286047000.8,N,0.9
1503256935.6,286047000.9,N,0.9
1503256955.4,286047000.8,N,0.9
1503256975.3,286047001.1,N,0.8
1503256995.1,286047000.2,N,0.8
1503256996.0,286047000.2,N,0.8
1503257015.8,286046999.9,N,0.8
1503257035.7,286047000.4,N,0.7
1503257055.5,286047000.8,N,0.7
1503257075.4,286047001.1,N,0.7
1503257095.2,286047000.5,N,0.7
1503257115.0,286047000.4,N,0.7
1503257115.9,286047000.4,N,0.6
1503257135.8,286047000.2,N,0.6
1503257155.6,286047000.8,N,0.6
1503257175.4,286047000.0,N,0.6
1503257195.3,286047000.3,N,0.6
1503257215.1,286047000.2,N,0.6
1503257235.9,286047000.4,N,0.6
1503257255.7,286047000.5,N,0.6
1503257275.5,286047002.8,Y,0.0
1503257295.4,286047000.4,P,0.0
1503257315.2,286047000.4,P,0.0
1503257335.1,286047000.6,P,0.1
1503257336.0,286047000.6,Y,0.0
1503257355.8,286046998.1,P,1.2
1503257375.6,286046998.1,N,1.1
1503257395.5,286047000.6,N,1.2
1503257415.3,286046999.8,N,1.1
1503257435.2,286047000.4,N,1.1
1503257455.9,286047001.2,N,1.1
1503257475.7,286046998.1,N,1.2
1503257495.6,286046998.8,N,1.2
1503257515.4,286046998.9,N,1.1
1503257535.3,286046999.6,N,1.1
1503257555.1,286046997.0,N,1.2
1503257556.0,286046997.0,N,1.3
1503257575.8,286046997.2,N,1.4
1503257595.7,286046997.8,N,1.4
1503257615.5,286046997.1,N,1.4
1503257635.4,286046997.2,N,1.4
1503257655.2,286046997.1,N,1.4
1503257675.0,286046997.7,N,1.4
1503257675.9,286046997.7,N,1.3
1503257695.8,286046996.8,N,1.4
1503257715.6,286046995.3,Y,0.0
1503257735.5,286046999.6,P,0.6
1503257755.3,286046996.5,P,1.3
1503257775.1,286046997.3,N,1.2
1503257795.9,286046997.3,N,1.1
1503257815.7,286046994.9,Y,0.0
1503257835.6,286046999.6,P,0.9
1503257855.4,286046996.9,P,1.1
1503257875.2,286046997.0,N,1.1
1503257895.1,286046999.1,N,1.1
1503257896.0,286046999.1,N,1.1
1503257915.8,286046999.3,N,1.1
1503257935.7,286046998.1,N,1.0
1503257955.5,286046998.5,N,0.9
1503257975.3,286046999.2,N,0.9
1503257995.2,286046996.8,Y,0.0
1503258015.0,286046996.5,P,1.0
1503258015.9,286046996.5,P,0.9
1503258035.8,286046999.5,N,1.3
1503258055.6,286046999.4,N,1.3
1503258075.4,286046997.2,N,1.3
1503258095.3,286046997.0,N,1.2
1503258115.1,286046998.0,N,1.1
1503258135.9,286046995.3,Y,0.0
1503258155.7,286046996.9,P,0.5
1503258175.5,286046996.7,P,0.5
1503258195.4,286046997.4,P,0.4
1503258215.2,286046997.4,Y,0.0
1503258235.0,286047000.0,P,1.4
1503258235.9,286047000.0,N,1.3
1503258255.8,286047000.8,N,1.4
1503258275.6,286047001.1,N,1.4
1503258295.5,286047000.6,N,1.3
1503258315.3,286047001.1,N,1.3
1503258335.1,286046998.1,N,1.4
1503258355.9,286046998.6,N,1.3
1503258375.7,286047001.1,N,1.3
1503258395.6,286047001.2,N,1.3
1503258415.4,286046998.4,N,1.3
1503258435.2,286046998.4,N,1.3
1503258455.1,286046998.7,N,1.3
1503258456.0,286046998.7,N,1.3
1503258475.8,286046998.9,N,1.3
1503258495.7,286046999.6,N,1.2
1503258515.5,286046999.2,N,1.2
1503258535.3,286046999.5,N,1.2
1503258555.2,286046999.5,N,1.1
1503258575.0,286046999.3,N,1.1
1503258575.9,286046999.3,N,1.1
1503258595.7,286046998.7,N,1.1
1503258615.6,286046998.8,N,1.1
1503258635.4,286046999.1,N,1.0
1503258655.3,286046999.6,N,1.0
1503258675.1,286046999.4,N,1.0
1503258695.9,286046999.0,N,1.0
1503258715.7,286046997.0,Y,0.0
1503258735.5,286046996.7,P,1.4
1503258755.4,286046999.4,N,1.3
1503258775.2,286046996.6,N,1.4
1503258795.0,286046996.5,N,1.4
1503258796.0,286046996.5,N,1.3
1503258815.8,286046996.9,N,1.3
1503258835.6,286046999.2,N,1.3
1503258855.5,286046997.3,N,1.2
1503258875.3,286046996.6,N,1.2
1503258895.1,286046999.5,N,1.3
1503258915.9,286046997.1,N,1.3
1503258935.7,286046997.1,N,1.2
1503258955.6,286046997.7,N,1.2
1503258975.4,286046994.9,Y,0.0
1503258995.2,286046998.5,P,0.4
1503259015.1,286046998.4,P,0.4
1503259016.0,286046998.4,P,0.4
1503259035.8,286046998.3,Y,0.0
1503259055.7,286047002.2,P,2.0
1503259075.5,286047000.0,N,1.6
1503259095.3,286047000.0,N,1.4
1503259115.2,286047002.3,N,1.5
1503259135.0,286047000.3,N,1.4
1503259135.9,286047000.3,N,1.3
1503259155.8,286047001.0,N,1.2
1503259175.6,286047001.1,N,1.2
1503259195.4,286047000.5,N,1.1
